Regional Weather Roundup
Issued by NWS

Home | Current Version | Previous Version | Text Only | Print | Product List | Glossary Off
Versions: 1 2 3 4 5 6 7 8 9 10 11 12 13 14 15 16 17 18 19 20 21 22 23 24 25 26 27 28 29 30 31 32 33 34 35 36 37 38 39 40 41 42 43 44 45 46 47 48 49 50

000
ASUS43 KMPX 011401
RWRMN
WEATHER ROUNDUP FOR MINNESOTA
NATIONAL WEATHER SERVICE TWIN CITIES/CHANHASSEN MN
800 AM CST WED MAR 01 2017


NOTE: "FAIR" INDICATES FEW OR NO CLOUDS BELOW 12,000 FEET WITH NO
SIGNIFICANT WEATHER AND/OR OBSTRUCTIONS TO VISIBILITY. N/A MEANS
CURRENT SKY AND/OR WEATHER CONDITIONS ARE NOT AVAILABLE.

MNZ060>063-068>070-011500-
   Twin Cities Metro

CITY           SKY/WX    TMP DP  RH WIND       PRES   REMARKS
TWIN CITIES    CLOUDY    27  21  78 N14       29.81R WCI  16
ST PAUL        CLOUDY    27  22  81 N12       29.82R WCI  17
CRYSTAL        CLOUDY    27  19  72 N13       29.82R WCI  16
BLAINE         CLOUDY    28  23  80 N15G22    29.81R WCI  17
LAKEVILLE      CLOUDY    25  23  93 N12       29.80R WCI  14
EDEN PRAIRIE   CLOUDY    28  22  78 N14       29.81R WCI  17
SOUTH ST PAUL  CLOUDY    27  23  82 N12       29.80R WCI  17
LAKE ELMO      CLOUDY    28  23  80 N14G21    29.80R WCI  17
$$
MNZ001>005-007-008-013>017-022>024-027-028-011500-
   Northwest Minnesota

CITY           SKY/WX    TMP DP  RH WIND       PRES   REMARKS
BEMIDJI        CLEAR     11   6  81 NW3       29.90R
HALLOCK        LGT SNOW  12   9  85 N13       30.01R WCI  -3
ROSEAU         CLOUDY    10   5  79 N3        29.97R
WARROAD        CLOUDY    12   7  79 CALM      29.97R
THIEF RVR FALL PTCLDY    12   6  77 NW9       29.97R WCI   0
CROOKSTON      MOCLDY    12   7  79 N13       30.01R WCI  -3
FOSSTON        PTCLDY    12   9  85 CALM      29.93S
DETROIT LAKES  PTCLDY    21  19  93 NW10      29.92R WCI  10
MOORHEAD       CLEAR     14   9  79 NW12      29.99R WCI   0
PARK RAPIDS    PTCLDY    19   9  65 N5        29.88R WCI  12
MAHNOMEN       FAIR      17  12  81 NW7       29.93R WCI   7
$$
MNZ006-009>011-018-025>026-011500-
   North Central Minnesota

CITY           SKY/WX    TMP DP  RH WIND       PRES   REMARKS
BAUDETTE       CLOUDY     9   1  70 CALM      29.93R
FLAG ISLAND    MOCLDY    10   1  67 NE3       29.96S
INTL FALLS     CLOUDY     8  -2  63 NE6       29.93S WCI  -2
WASKISH        PTCLDY    10   3  72 E5        29.92S WCI   2
BIG FORK       PTCLDY    10   5  79 CALM      29.89S
LONGVILLE      CLOUDY    18  10  73 CALM      29.89R
GRAND RAPIDS   CLOUDY    15   6  67 N6        29.89R WCI   6
CRANE LAKE     CLOUDY     9   0  66 CALM      29.95R
ORR            MOSUNNY   10   0  61 CALM      29.87S
COOK           MOSUNNY   10   1  67 N5        29.89S WCI   2
WALKER         FAIR      15   8  75 CALM      29.89R
$$
MNZ012-019>021-037-011500-
   Northeast Minnesota

CITY           SKY/WX    TMP DP  RH WIND       PRES   REMARKS
DULUTH         CLOUDY    15   8  73 N10       29.83R WCI   2
ELY            PTSUNNY    9   0  66 CALM      29.88R
HIBBING        CLOUDY    13   4  67 N6        29.87R WCI   4
EVELETH        CLOUDY    14   1  57 NE7       29.88R WCI   3
DULUTH HARBOR  CLOUDY    23  18  80 N10       29.89R WCI  12
TWO HARBORS    CLOUDY    19  10  68 N7        29.85R WCI  10
SILVER BAY     PTSUNNY   16   5  62 N5        29.85R WCI   9
G MARAIS ARPRT CLOUDY     7  -6  56 N10       29.81R WCI  -8
$$
MNZ029>031-032-039>041-046>048-054>057-064-011500-
   West Central Minnesota

CITY           SKY/WX    TMP DP  RH WIND       PRES   REMARKS
FERGUS FALLS   MOCLDY    18  16  93 NW14      29.98R WCI   4
WHEATON        PTCLDY    18  14  86 NW10      29.98R WCI   6
MORRIS         CLEAR     21  18  86 NW14      29.92R WCI   8
ALEXANDRIA     PTCLDY    23  18  81 NW8       29.89R WCI  14
ELBOW LAKE     FAIR      19  18  93 W12       29.92R WCI   7
WADENA         CLOUDY    19  16  86 NW7       29.88R WCI  10
GLENWOOD       PTCLDY    25  19  80 NW10      29.89R WCI  15
APPLETON       PTCLDY    21  18  86 NW9       29.93R WCI  11
BENSON         PTCLDY    25  19  80 N13G18    29.92R WCI  13
ORTONVILLE     CLOUDY    19  14  79 NW12      29.93S WCI   7
MADISON        PTCLDY    23  19  86 NW12      29.94R WCI  12
WILLMAR        FAIR      27  25  93 NW13      29.89R WCI  16
$$
MNZ033>034-036-042>043-049>051-058-059-011500-
   Central Minnesota

CITY           SKY/WX    TMP DP  RH WIND       PRES   REMARKS
ST CLOUD       CLOUDY    27  23  85 N9        29.84R WCI  18
SAUK CENTRE    PTSUNNY   25  21  85 NW9       29.88R WCI  15
PAYNESVILLE    CLOUDY    28  27  96 NW10      29.87R WCI  18
AITKIN         CLOUDY    23  12  63 N6        29.85R WCI  16
PINE RIVER     CLOUDY    19  14  79 N8        29.91S WCI   9
BRAINERD       CLOUDY    24  16  71 N7        29.87R WCI  16
STAPLES        CLOUDY    19  16  86 N7        29.88R WCI  10
LONG PRAIRIE   CLOUDY    27  21  80 W9        29.88R WCI  17
LITTLE FALLS   CLOUDY    28  21  74 NW3       29.86R
LITCHFIELD     CLOUDY    30  27  86 NW13      29.85R WCI  20
BUFFALO        CLOUDY    28  24  82 NW10      29.85R WCI  19
MAPLE LAKE     CLOUDY    29  26  86 N10       29.85R WCI  20
HUTCHINSON     CLOUDY    31  26  82 NW18      29.86R WCI  19
$$
MNZ037-044-045-052-053-011500-
   East Central Minnesota

CITY           SKY/WX    TMP DP  RH WIND       PRES   REMARKS
PRINCETON      CLOUDY    27  21  80 N6        29.84R WCI  20
MORA           CLOUDY    27  21  80 CALM      29.85S
CAMBRIDGE      CLOUDY    27  18  69 N12       29.82R WCI  16
RUSH CITY      CLOUDY    24  20  83 N15       29.83R WCI  12
MOOSE LAKE     CLOUDY    21  14  73 N7        29.83S WCI  13
HINCKLEY       CLOUDY    25  21  86 N10       29.84R WCI  15
CLOQUET        CLOUDY    18   9  68 N7        29.84S WCI   8
MCGREGOR       CLOUDY    21  12  68 N8        29.86S WCI  12
$$
MNZ071>073-080-081-089-090-097-098-011500-
   Southwest Minnesota

CITY           SKY/WX    TMP DP  RH WIND       PRES   REMARKS
MONTEVIDEO     PTCLDY    23  21  93 N13       29.93R WCI  11
GRANITE FALLS  PTCLDY    26  23  89 W18       29.92R WCI  12
CANBY          MOCLDY    24  21  88 CALM      29.94R
MARSHALL       CLOUDY    24  20  84 NW21      29.91R WCI   9
REDWOOD FALLS  CLOUDY    29  24  82 NW15G23   29.88R WCI  18
OLIVIA         MOCLDY    30  27  86 NW18      29.87R WCI  18
PIPESTONE      CLOUDY    25  19  80 NW13      29.90R WCI  13
WINDOM         MOSUNNY   27  25  93 NW17      29.86R WCI  14
WORTHINGTON    CLOUDY    26  23  88 NW18G25   29.89R WCI  13
JACKSON        CLOUDY    28  27  93 NW17G26   29.86R WCI  16
TRACY          MOCLDY    25  23  91 NW15      29.90R WCI  13
SLAYTON        CLOUDY    24  22  92 NW14      29.89R WCI  12
$$
MNZ065>067-074>077-082>085-091>093-011500-
   South Central Minnesota

CITY           SKY/WX    TMP DP  RH WIND       PRES   REMARKS
MANKATO        LGT SNOW  28  25  88 N16       29.83R FOG     WCI  16
NEW ULM        CLOUDY    30  25  80 NW18      29.84R WCI  18
ST JAMES       CLOUDY    30  28  93 NW15      29.86R WCI  19
FAIRMONT       CLOUDY    31  28  89 NW21G29   29.83R WCI  18
GLENCOE        CLOUDY    31  29  91 N10       29.83R WCI  22
FARIBAULT      FLURRIES  27  25  93 NW12      29.80R WCI  16
WASECA         CLOUDY    28  25  86 NW17      29.81R WCI  16
ALBERT LEA     CLOUDY    27  25  93 N12G21    29.76R WCI  16
$$
MNZ078>079-086>088-094>096-011500-
   Southeast Minnesota

CITY           SKY/WX    TMP DP  RH WIND       PRES   REMARKS
ROCHESTER      LGT SNOW  25  24  96 N23       29.71R VSB 3/4 WCI  10
RED WING       LGT SNOW  27  21  80 N12G17    29.75R WCI  16
STANTON        LGT SNOW  28  24  86 N13G21    29.77R WCI  17
WINONA         LGT SNOW  32  30  93 N6        29.71R VSB 3/4 WCI  26
AUSTIN         LGT SNOW  27  25  93 N21G26    29.73R VSB 1   WCI  13
PRESTON        LGT SNOW  27  25  90 N18       29.67R WCI  14
$$
ABBREVIATIONS USED IN REMARKS
   TC - TEMPERATURES IN CELSIUS
  WCI - WIND CHILL INDEX
   HX - HEAT INDEX
  VSB - VISIBILITY
$$



USA.gov is the U.S. government's official web portal to all federal, state and local government web resources and services.